Location: Civry
(47.2902°N, 4.6156°E)
Time: 13:50:32
(UTC+00:00)

SL-16 R/B - Visible Passes

Search period start: 06 August 2020 00:00
Search period end: 16 August 2020 00:00
Orbit: 842 x 846 km, 71.0° (Epoch: 05 August)

Date Brightness Start Highest point End Pass type
(mag) Time Alt. Az. Time Alt. Az. Time Alt. Az.
06 Aug 3.8 00:04:45 10° NW 00:08:33 21° W 00:08:33 21° W visible
06 Aug 4.3 20:22:21 10° N 20:25:44 16° NE 20:29:07 10° ENE visible
06 Aug 2.3 22:05:21 10° NNW 22:11:00 65° ENE 22:12:32 47° ESE visible
06 Aug 3.8 23:50:23 10° NW 23:54:23 22° W 23:54:23 22° W visible
07 Aug 4.3 20:08:05 10° N 20:11:23 15° NE 20:14:40 10° ENE visible
07 Aug 2.4 21:51:02 10° NNW 21:56:42 63° ENE 21:58:24 43° ESE visible
07 Aug 3.7 23:36:01 10° NW 23:40:15 23° W 23:40:15 23° W visible
08 Aug 4.3 19:53:50 10° N 19:57:02 15° NE 20:00:14 10° ENE visible
08 Aug 2.4 21:36:44 10° NNW 21:42:22 61° ENE 21:44:17 40° ESE visible
08 Aug 3.7 23:21:39 10° NW 23:26:01 23° WSW 23:26:09 23° WSW visible
09 Aug 4.3 19:39:34 10° N 19:42:41 15° NE 19:45:46 10° ENE visible
09 Aug 2.4 21:22:26 10° NNW 21:28:03 59° ENE 21:30:13 36° ESE visible
09 Aug 3.6 23:07:16 10° NW 23:11:44 24° WSW 23:12:04 24° WSW visible
10 Aug 2.5 21:08:08 10° NNW 21:13:44 57° ENE 21:16:10 33° ESE visible
10 Aug 3.6 22:52:54 10° NW 22:57:26 25° WSW 22:58:01 25° WSW visible
11 Aug 2.5 20:53:49 10° NNW 20:59:25 55° ENE 21:02:09 29° ESE visible
11 Aug 3.6 22:38:32 10° NW 22:43:09 26° WSW 22:44:01 25° WSW visible
12 Aug 2.5 20:39:31 10° NNW 20:45:06 53° ENE 20:48:11 26° ESE visible
12 Aug 3.5 22:24:11 10° NW 22:28:52 27° WSW 22:30:02 25° WSW visible
13 Aug 2.6 20:25:13 10° NNW 20:30:47 52° ENE 20:34:14 22° SE visible
13 Aug 3.5 22:09:50 10° NW 22:14:35 28° WSW 22:16:06 25° SW visible
14 Aug 2.6 20:10:54 10° NNW 20:16:27 50° ENE 20:20:20 19° SE visible
14 Aug 3.6 21:55:28 10° NW 22:00:17 29° WSW 22:02:12 24° SW visible
15 Aug 2.6 19:56:36 10° NNW 20:02:07 49° NE 20:06:28 16° SE visible
15 Aug 3.6 21:41:07 10° NW 21:45:59 30° WSW 21:48:20 22° SW visible
